DW0364 Weather Reports


time (UTC)temp
F
wind
direction
speed
knots
gust
knots
rain 1hr
in
rain 24hr
in
rain mn
in
humidity
%
barometer
mb
20260508165206 68 48 0.9 1.7 0.00 0.00 0.00 42 1016.9
20260508164702 68 342 0.0 0.9 0.00 0.00 0.00 48 1016.9
20260508164159 67 3 0.9 2.6 0.00 0.00 0.00 41 1017.1
20260508163657 67 347 0.0 1.7 0.00 0.00 0.00 41 1017.1
20260508163154 66 295 0.0 1.7 0.00 0.00 0.00 49 1017.2
20260508162649 66 353 0.0 0.9 0.00 0.00 0.00 42 1017.2
20260508162147 68 329 0.0 1.7 0.00 0.00 0.00 47 1017.1
20260508161644 67 307 0.9 0.9 0.00 0.00 0.00 44 1017.3
20260508161142 66 323 0.0 1.7 0.00 0.00 0.00 51 1017.3
20260508160639 66 325 0.9 1.7 0.00 0.00 0.00 47 1017.4
20260508160137 66 311 0.9 0.9 0.00 0.00 0.00 50 1017.5
20260508155634 66 297 0.9 0.9 0.00 0.00 0.00 48 1017.6
20260508155131 68 323 0.0 0.0 0.00 0.00 0.00 50 1017.6
20260508154628 66 290 0.0 0.9 0.00 0.00 0.00 49 1017.7
20260508154124 64 48 0.0 2.6 0.00 0.00 0.00 53 1017.7
20260508153621 65 57 0.9 2.6 0.00 0.00 0.00 49 1017.8
20260508153118 64 74 0.9 1.7 0.00 0.00 0.00 51 1018.1
20260508152615 65 46 1.7 5.2 0.00 0.00 0.00 50 1018.0
20260508152109 66 46 0.0 1.7 0.00 0.00 0.00 52 1017.7
20260508151606 64 337 0.0 0.9 0.00 0.00 0.00 54 1017.7
20260508151058 63 263 1.7 1.7 0.00 0.00 0.00 52 1017.7
20260508150555 64 292 0.0 1.7 0.00 0.00 0.00 51 1017.8
20260508150051 65 17 0.9 2.6 0.00 0.00 0.00 51 1017.7
20260508145548 66 347 0.0 1.7 0.00 0.00 0.00 48 1017.7
20260508145044 67 40 4.3 5.2 0.00 0.00 0.00 47 1017.8
20260508144542 66 350 0.0 0.0 0.00 0.00 0.00 48 1018.0
20260508144039 64 0 0.0 0.9 0.00 0.00 0.00 54 1017.8
20260508143536 64 302 0.0 0.9 0.00 0.00 0.00 50 1018.0
20260508143033 62 3 0.0 0.9 0.00 0.00 0.00 48 1018.0
20260508142530 63 57 3.5 4.3 0.00 0.00 0.00 49 1018.0
20260508142026 62 17 1.7 2.6 0.00 0.00 0.00 52 1018.0
20260508141523 63 356 0.9 2.6 0.00 0.00 0.00 51 1018.2
20260508141021 63 21 1.7 1.7 0.00 0.00 0.00 52 1018.0
20260508140518 62 2 1.7 1.7 0.00 0.00 0.00 51 1018.1
20260508140014 62 34 0.9 2.6 0.00 0.00 0.00 49 1018.1
20260508135510 62 11 0.9 5.2 0.00 0.00 0.00 54 1018.2
20260508135006 62 23 0.0 0.9 0.00 0.00 0.00 58 1017.8
20260508134503 62 4 0.0 0.9 0.00 0.00 0.00 54 1018.0
20260508134000 61 337 0.9 1.7 0.00 0.00 0.00 54 1017.8
20260508133457 61 59 1.7 2.6 0.00 0.00 0.00 57 1018.0
20260508132954 61 233 0.0 2.6 0.00 0.00 0.00 59 1018.1
20260508132452 61 0 0.9 2.6 0.00 0.00 0.00 58 1018.0
20260508131948 62 29 2.6 2.6 0.00 0.00 0.00 61 1017.9
20260508131444 61 327 0.9 2.6 0.00 0.00 0.00 63 1017.8
20260508130941 63 8 0.9 1.7 0.00 0.00 0.00 66 1017.8
20260508130438 62 13 0.0 0.9 0.00 0.00 0.00 65 1017.6
20260508125933 60 7 0.0 1.7 0.00 0.00 0.00 67 1017.7
20260508125430 60 343 0.0 0.9 0.00 0.00 0.00 74 1017.9
20260508124928 59 341 0.0 0.9 0.00 0.00 0.00 74 1017.7
20260508124425 59 337 0.0 1.7 0.00 0.00 0.00 74 1017.6
20260508123923 58 341 0.9 2.6 0.00 0.00 0.00 76 1017.8
20260508123421 58 10 1.7 1.7 0.00 0.00 0.00 76 1017.5
20260508122917 56 353 0.0 0.9 0.00 0.00 0.00 81 1017.5
20260508122414 56 15 0.0 4.3 0.00 0.00 0.00 83 1017.4
20260508121911 56 357 0.9 1.7 0.00 0.00 0.00 83 1017.4
20260508121410 55 11 0.9 0.9 0.00 0.00 0.00 84 1017.3
20260508120907 55 1 0.0 0.9 0.00 0.00 0.00 84 1017.2
20260508120404 55 63 0.9 1.7 0.00 0.00 0.00 85 1017.2
20260508115902 53 345 0.9 0.9 0.00 0.00 0.00 89 1017.2
20260508115400 52 2 0.0 0.0 0.00 0.00 0.00 97 1017.3
20260508114855 51 356 0.0 0.0 0.00 0.00 0.00 99 1017.1
20260508114353 51 357 0.0 0.0 0.00 0.00 0.00 99 1016.8
20260508113849 50 357 0.0 0.0 0.00 0.00 0.00 99 1016.7
20260508113347 50 357 0.0 0.0 0.00 0.00 0.00 99 1016.8
20260508112844 49 357 0.0 0.0 0.00 0.00 0.00 99 1016.6
20260508112341 49 357 0.0 0.0 0.00 0.00 0.00 99 1016.5
20260508111837 49 357 0.0 0.0 0.00 0.00 0.00 99 1016.6
20260508111334 49 357 0.0 0.0 0.00 0.00 0.00 99 1016.3
20260508110832 48 357 0.0 0.0 0.00 0.00 0.00 99 1016.2
20260508110329 48 357 0.0 0.0 0.00 0.00 0.00 99 1016.0
20260508105829 48 2 0.0 0.0 0.00 0.00 0.00 99 1016.1
20260508105326 48 2 0.0 0.0 0.00 0.00 0.00 99 1015.9
20260508104823 48 12 0.0 0.0 0.00 0.00 0.00 99 1016.0
20260508104320 48 12 0.0 0.0 0.00 0.00 0.00 99 1016.0
20260508103817 48 12 0.0 0.0 0.00 0.00 0.00 99 1015.8
20260508103314 48 12 0.0 0.0 0.00 0.00 0.00 99 1015.7
20260508102811 48 12 0.0 0.0 0.00 0.00 0.00 99 1015.6
20260508102309 48 12 0.0 0.0 0.00 0.00 0.00 99 1015.5
20260508101806 48 12 0.0 0.0 0.00 0.00 0.00 99 1015.4
20260508101304 48 12 0.0 0.0 0.00 0.00 0.00 99 1015.4
20260508100801 48 12 0.0 0.0 0.00 0.00 0.00 99 1015.3
20260508100300 49 12 0.0 0.0 0.00 0.00 0.00 99 1015.3
20260508095755 49 12 0.0 0.0 0.00 0.00 0.00 99 1015.2
20260508095253 49 12 0.0 0.0 0.00 0.00 0.00 99 1015.2
20260508094749 49 12 0.0 0.0 0.00 0.00 0.00 99 1015.4
20260508094246 49 12 0.0 0.0 0.00 0.00 0.00 99 1015.3
20260508093743 49 12 0.0 0.0 0.00 0.00 0.00 99 1015.1
20260508093241 49 12 0.0 0.0 0.00 0.00 0.00 99 1015.1
20260508092738 49 12 0.0 0.0 0.00 0.00 0.00 99 1015.2
20260508092236 49 12 0.0 0.0 0.00 0.00 0.00 99 1015.0
20260508091734 50 12 0.0 0.0 0.00 0.00 0.00 99 1015.2
20260508091230 50 12 0.0 0.0 0.00 0.00 0.00 99 1015.0
20260508090728 50 12 0.0 0.0 0.00 0.00 0.00 99 1014.7
20260508090226 50 12 0.0 0.0 0.00 0.00 0.00 99 1014.6
20260508085721 50 12 0.0 0.0 0.00 0.00 0.00 99 1015.1
20260508085219 50 12 0.0 0.0 0.00 0.00 0.00 99 1015.0
20260508084714 50 12 0.0 0.0 0.00 0.00 0.00 99 1015.1
20260508084213 50 12 0.0 0.0 0.00 0.00 0.00 99 1014.6
20260508083710 50 12 0.0 0.0 0.00 0.00 0.00 99 1014.6
20260508083207 50 12 0.0 0.0 0.00 0.00 0.00 99 1014.8
20260508082702 50 12 0.0 0.0 0.00 0.00 0.00 99 1014.6
20260508082200 50 12 0.0 0.0 0.00 0.00 0.00 99 1014.6
20260508081657 50 12 0.0 0.0 0.00 0.00 0.00 99 1014.5
20260508081153 50 12 0.0 0.0 0.00 0.00 0.00 99 1014.5
20260508080650 50 10 0.0 0.0 0.00 0.00 0.00 98 1014.4
20260508080149 50 10 0.0 0.0 0.00 0.00 0.00 98 1014.6
20260508075645 50 10 0.0 0.0 0.00 0.00 0.00 98 1014.3
20260508075142 50 10 0.0 0.0 0.00 0.00 0.00 98 1014.3
20260508074640 50 10 0.0 0.0 0.00 0.00 0.00 98 1014.2
20260508074136 50 10 0.0 0.0 0.00 0.00 0.00 98 1014.2
20260508073633 50 10 0.0 0.0 0.00 0.00 0.00 98 1014.5
20260508073131 50 10 0.0 0.0 0.00 0.00 0.00 98 1014.3
20260508072627 51 10 0.0 0.0 0.00 0.00 0.00 98 1014.2
20260508072124 50 10 0.0 0.0 0.00 0.00 0.00 97 1014.3
20260508071621 51 10 0.0 0.0 0.00 0.00 0.00 97 1014.4
20260508071120 51 10 0.0 0.0 0.00 0.00 0.00 96 1014.5
20260508070617 51 10 0.0 0.0 0.00 0.00 0.00 95 1014.1
20260508070116 51 10 0.0 0.0 0.00 0.00 0.00 94 1014.2
20260508065612 51 10 0.0 0.0 0.00 0.00 0.00 94 1014.1
20260508065110 51 10 0.0 0.0 0.00 0.00 0.00 93 1013.9
20260508064608 52 10 0.0 0.0 0.00 0.00 0.00 93 1014.1
20260508064106 52 10 0.0 0.0 0.00 0.00 0.00 92 1014.0
20260508063603 52 10 0.0 0.0 0.00 0.00 0.00 91 1014.0
20260508063101 53 11 0.0 0.0 0.00 0.00 0.00 92 1014.0
20260508062558 53 11 0.0 0.9 0.00 0.00 0.00 91 1014.0
20260508062054 53 11 0.0 0.0 0.00 0.00 0.00 91 1013.9
20260508061552 53 11 0.0 0.0 0.00 0.00 0.00 90 1014.0
20260508061049 53 11 0.0 0.9 0.00 0.00 0.00 90 1014.1
20260508060545 53 11 0.0 0.9 0.00 0.00 0.00 90 1014.1
20260508060043 53 10 0.0 0.0 0.00 0.00 0.00 91 1014.2
20260508055538 53 10 0.0 0.0 0.00 0.00 0.00 91 1014.2
20260508055036 53 10 0.0 0.9 0.00 0.00 0.00 91 1014.2
20260508054532 53 5 0.0 0.0 0.00 0.00 0.00 92 1014.2
20260508054030 53 5 0.0 0.0 0.00 0.00 0.00 91 1014.0
20260508053526 53 1 0.0 0.0 0.00 0.00 0.00 93 1014.2
20260508053025 53 0 0.0 0.0 0.00 0.00 0.00 93 1014.1
20260508052521 53 0 0.0 0.0 0.00 0.00 0.00 93 1014.0
20260508052018 53 0 0.0 0.0 0.00 0.00 0.00 93 1013.9
20260508051515 53 0 0.0 0.9 0.00 0.00 0.00 92 1014.1
20260508051009 53 352 0.0 0.0 0.00 0.00 0.00 91 1013.8
20260508050506 53 352 0.0 0.0 0.00 0.00 0.00 91 1014.1
20260508050004 54 352 0.0 0.0 0.00 0.00 0.00 91 1014.0
20260508045500 54 352 0.0 0.0 0.00 0.00 0.00 90 1013.9
20260508044958 54 353 0.0 0.0 0.00 0.00 0.00 88 1013.9
20260508044455 54 351 0.0 0.0 0.00 0.00 0.00 86 1013.9
20260508043950 54 351 0.0 0.0 0.00 0.00 0.00 86 1014.0
20260508043448 55 350 0.0 0.0 0.00 0.00 0.00 85 1013.8
20260508042943 55 350 0.0 0.0 0.00 0.00 0.00 85 1013.6
20260508042441 55 350 0.0 0.0 0.00 0.00 0.00 86 1013.7
20260508041938 56 349 0.0 0.0 0.00 0.00 0.00 84 1013.7
20260508041435 56 349 0.0 0.0 0.00 0.00 0.00 83 1013.6
20260508040931 57 351 0.0 0.0 0.00 0.00 0.00 82 1013.6
20260508040429 57 339 0.0 0.0 0.00 0.00 0.00 81 1013.7
20260508035926 57 349 0.0 0.0 0.00 0.62 0.62 80 1013.6
20260508035423 57 350 0.0 0.0 0.00 0.62 0.62 80 1013.5
20260508034920 58 344 0.0 0.0 0.00 0.62 0.62 80 1013.6
20260508034417 58 4 0.0 0.0 0.00 0.62 0.62 79 1013.7
20260508033914 58 337 0.0 0.0 0.00 0.62 0.62 79 1013.5
20260508033412 57 338 0.0 0.9 0.00 0.62 0.62 80 1013.6
20260508032909 58 336 0.0 0.0 0.00 0.62 0.62 80 1013.6
20260508032406 58 0 0.9 1.7 0.00 0.62 0.62 80 1013.4
20260508031903 58 0 0.0 0.0 0.00 0.62 0.62 80 1013.5
20260508031401 58 13 0.0 0.0 0.00 0.62 0.62 80 1013.5
20260508030856 58 13 0.0 0.0 0.00 0.62 0.62 80 1013.4
20260508030353 58 3 0.0 0.9 0.00 0.62 0.62 80 1013.4
20260508025850 59 2 0.0 0.9 0.00 0.62 0.62 79 1013.4
20260508025347 59 1 0.0 0.0 0.00 0.62 0.62 79 1013.5
20260508024844 59 358 0.0 0.0 0.00 0.62 0.62 80 1013.1
20260508024341 59 1 0.0 0.9 0.00 0.62 0.62 79 1013.2
20260508023837 59 338 0.0 0.0 0.00 0.62 0.62 80 1013.2
20260508023334 59 321 0.0 0.9 0.00 0.62 0.62 80 1013.2
20260508022831 59 338 0.0 0.0 0.00 0.62 0.62 81 1013.1
20260508022326 59 337 0.0 0.9 0.00 0.62 0.62 78 1013.1
20260508021824 60 352 0.0 0.0 0.00 0.62 0.62 78 1013.1
20260508021319 60 307 0.0 0.9 0.00 0.62 0.62 78 1012.9
20260508020816 60 346 0.0 0.9 0.00 0.62 0.62 78 1013.1
20260508020314 60 4 0.0 0.9 0.00 0.62 0.62 78 1012.8
20260508015811 61 347 0.0 0.9 0.00 0.62 0.62 78 1012.9
20260508015309 61 328 0.0 0.9 0.00 0.62 0.62 78 1012.7
20260508014805 61 6 1.7 1.7 0.00 0.62 0.62 80 1012.5
20260508014302 60 315 3.5 5.2 0.00 0.62 0.62 80 1012.5
20260508013757 61 340 0.0 0.9 0.00 0.62 0.62 85 1012.4
20260508013254 61 331 0.0 0.9 0.00 0.62 0.62 85 1012.0
20260508012752 60 333 0.0 2.6 0.00 0.62 0.62 87 1012.1
20260508012249 60 324 0.0 0.9 0.00 0.62 0.62 91 1012.0
20260508011747 61 343 0.0 0.9 0.00 0.62 0.62 97 1011.8
20260508011244 61 317 0.0 0.0 0.00 0.62 0.62 97 1011.8
20260508010741 61 339 0.0 0.0 0.00 0.62 0.62 96 1012.0
20260508010238 62 350 0.0 0.0 0.00 0.62 0.62 96 1011.6
20260508005735 62 351 0.0 0.9 0.00 0.62 0.62 96 1011.5
20260508005232 62 358 0.0 0.0 0.00 0.62 0.62 96 1011.5
20260508004727 62 359 0.0 0.0 0.00 0.62 0.62 96 1011.6
20260508004224 62 288 0.0 0.0 0.00 0.62 0.62 96 1011.4
20260508003721 62 300 0.0 0.0 0.00 0.62 0.62 96 1011.1
20260508003218 62 318 0.0 0.0 0.00 0.62 0.62 96 1010.9
20260508002715 62 342 0.0 0.9 0.00 0.62 0.62 96 1010.6
20260508002212 62 7 0.9 0.9 0.00 0.62 0.62 95 1010.6
20260508001708 62 318 0.0 0.9 0.00 0.62 0.62 95 1010.6
20260508001203 62 327 0.0 0.9 0.00 0.62 0.62 94 1010.7
20260508000700 62 305 0.0 0.0 0.00 0.62 0.62 94 1010.5
20260508000157 63 324 0.0 0.9 0.00 0.62 0.62 94 1010.1
20260507235653 63 351 0.0 0.9 0.00 0.62 0.62 93 1010.2
20260507235151 63 39 0.9 4.3 0.00 0.62 0.62 92 1010.2
20260507234648 63 92 0.9 4.3 0.00 0.62 0.62 92 1010.3
20260507234144 63 277 1.7 2.6 0.00 0.62 0.62 92 1010.0
20260507233641 64 17 2.6 4.3 0.00 0.62 0.62 92 1010.0
20260507233139 64 6 0.0 2.6 0.00 0.62 0.62 92 1009.8
20260507232636 64 344 1.7 5.2 0.00 0.62 0.62 92 1009.9
20260507232133 64 322 0.0 1.7 0.00 0.62 0.62 92 1009.7
20260507231629 64 340 0.0 1.7 0.00 0.62 0.62 92 1009.8
20260507231127 64 344 0.0 1.7 0.00 0.62 0.62 92 1009.6
20260507230623 64 16 0.9 0.9 0.00 0.62 0.62 92 1009.6
20260507230120 65 141 2.6 2.6 0.00 0.62 0.62 92 1009.5
20260507225615 65 49 1.7 4.3 0.00 0.62 0.62 91 1009.1
20260507225111 65 84 0.9 2.6 0.00 0.62 0.62 91 1009.2
20260507224607 65 333 0.9 5.2 0.00 0.62 0.62 91 1008.8
20260507224104 65 18 1.7 5.2 0.00 0.62 0.62 90 1008.6
20260507223600 65 35 3.5 7.0 0.00 0.62 0.62 89 1008.7
20260507223057 66 335 0.9 4.3 0.00 0.62 0.62 90 1008.5
20260507222554 67 47 1.7 8.7 0.00 0.62 0.62 91 1008.4
20260507222050 67 6 1.7 5.2 0.00 0.62 0.62 92 1008.6
20260507221547 66 311 0.9 4.3 0.00 0.62 0.62 93 1008.4
20260507221044 67 321 1.7 5.2 0.00 0.62 0.62 92 1008.2
20260507220541 68 228 3.5 6.1 0.00 0.62 0.62 91 1008.3
20260507220038 70 0 2.6 7.0 0.00 0.62 0.62 89 1008.0
20260507215534 74 334 2.6 11.3 0.00 0.62 0.62 83 1007.9
20260507215033 75 320 0.0 0.9 0.00 0.62 0.62 79 1007.6
20260507214530 75 299 0.9 4.3 0.00 0.62 0.62 75 1007.1
20260507214025 76 319 0.0 2.6 0.00 0.62 0.62 75 1007.1
20260507213522 77 257 1.7 2.6 0.00 0.62 0.62 72 1007.1
20260507213019 76 327 0.0 1.7 0.00 0.62 0.62 74 1006.9
20260507212515 76 275 0.9 2.6 0.00 0.62 0.62 75 1006.8
20260507212012 76 269 2.6 6.1 0.00 0.62 0.62 73 1006.8
20260507211509 76 243 3.5 5.2 0.00 0.62 0.62 75 1006.7
20260507211005 76 255 3.5 7.0 0.00 0.62 0.62 74 1006.6
20260507210502 76 49 2.6 5.2 0.00 0.62 0.62 75 1006.6
20260507205959 76 318 0.9 2.6 0.00 0.62 0.62 76 1006.8
20260507205455 76 263 0.9 4.3 0.00 0.62 0.62 73 1006.6
20260507204951 77 285 2.6 7.0 0.00 0.62 0.62 74 1006.4
20260507204448 77 261 2.6 2.6 0.00 0.62 0.62 74 1006.6
20260507203946 77 256 2.6 5.2 0.00 0.62 0.62 71 1006.6
20260507203443 77 254 2.6 4.3 0.00 0.62 0.62 73 1006.8
20260507202939 73 321 0.0 0.9 0.00 0.62 0.62 79 1006.9
20260507202436 75 297 0.0 0.0 0.00 0.62 0.62 76 1006.8
20260507201932 76 308 0.9 0.9 0.00 0.62 0.62 74 1006.9
20260507201427 78 301 1.7 2.6 0.00 0.62 0.62 75 1006.9
20260507200924 75 304 0.9 1.7 0.00 0.62 0.62 75 1006.8
20260507200420 76 262 0.9 2.6 0.00 0.62 0.62 72 1006.9
20260507195916 75 248 2.6 2.6 0.00 0.62 0.62 72 1006.8
20260507195414 78 300 1.7 1.7 0.00 0.62 0.62 72 1006.9
20260507194911 76 254 0.0 1.7 0.00 0.62 0.62 72 1007.0
20260507194407 76 259 2.6 4.3 0.00 0.62 0.62 70 1007.2
20260507193903 75 20 1.7 2.6 0.00 0.62 0.62 74 1007.2
20260507193400 75 314 0.9 1.7 0.00 0.62 0.62 75 1007.3
20260507192857 77 313 0.9 4.3 0.00 0.62 0.62 71 1007.2
20260507192353 76 309 0.9 0.9 0.00 0.62 0.62 74 1007.3
20260507191850 75 313 0.0 1.7 0.00 0.62 0.62 71 1007.3
20260507191346 75 313 0.9 2.6 0.00 0.62 0.62 76 1007.8
20260507190843 75 263 1.7 2.6 0.00 0.62 0.62 72 1007.8
20260507190341 75 263 1.7 2.6 0.00 0.62 0.62 74 1007.9
20260507185839 75 311 0.0 0.9 0.00 0.62 0.62 75 1007.6
20260507185336 74 283 1.7 1.7 0.00 0.62 0.62 76 1007.9
20260507184833 74 275 1.7 1.7 0.00 0.62 0.62 75 1007.8
20260507184331 74 256 0.9 4.3 0.00 0.62 0.62 76 1007.8
20260507183827 74 297 0.9 1.7 0.00 0.62 0.62 75 1008.0
20260507183325 73 284 1.7 1.7 0.00 0.62 0.62 78 1008.0
20260507182822 73 299 0.9 2.6 0.00 0.62 0.62 79 1008.2
20260507182318 73 276 1.7 1.7 0.00 0.62 0.62 82 1008.1
20260507181814 71 299 0.9 2.6 0.00 0.62 0.62 80 1008.1
20260507181310 71 306 0.9 0.9 0.00 0.62 0.62 82 1008.1
20260507180807 73 263 1.7 2.6 0.00 0.62 0.62 78 1008.1
20260507180304 72 309 0.9 1.7 0.00 0.62 0.62 83 1007.9
20260507175759 72 269 2.6 4.3 0.00 0.62 0.62 83 1008.0
20260507175257 72 289 0.9 1.7 0.00 0.62 0.62 84 1008.0
20260507174754 72 267 1.7 1.7 0.00 0.62 0.62 82 1008.1
20260507174252 71 306 0.9 1.7 0.00 0.62 0.62 86 1008.1
20260507173749 70 325 1.7 2.6 0.00 0.62 0.62 90 1008.4
20260507173246 71 268 1.7 2.6 0.00 0.62 0.62 87 1008.4
20260507172742 70 325 0.9 2.6 0.00 0.62 0.62 92 1008.5
20260507172240 70 270 2.6 2.6 0.00 0.62 0.62 91 1008.5
20260507171735 69 320 0.9 2.6 0.00 0.62 0.62 96 1008.8
20260507171232 68 336 0.9 2.6 0.00 0.62 0.62 98 1008.7
20260507170729 66 261 2.6 2.6 0.00 0.62 0.62 99 1008.7
20260507170226 66 264 1.7 1.7 0.00 0.62 0.62 99 1008.6
20260507165721 66 308 0.9 1.7 0.00 0.62 0.62 99 1008.6